This demonstration page uses our WeatherBlox Daily Observations layout. Learn more.

36.17497, -115.13722

Hourly Observations for January 15, 2020

Temp ( °F °C ) Dew Point ( °F °C ) Humidity (%) Winds ( mph kmh ) Pressure ( in mb ) Visibility ( mi km ) Precip ( " mm )
12:53 am 00:53 Clear 39 3.9 27 -2.8 62 62 W 5 7 30.07 1018 10 16.0934 0 0
1:53 am 01:53 Clear 38 3.3 26 -3.3 62 62 NW 7 11 30.08 1019 10 16.0934 0 0
2:53 am 02:53 Clear 39 3.9 26 -3.3 60 60 W 5 7 30.08 1019 10 16.0934 0 0
3:53 am 03:53 Clear 37 2.8 25 -3.9 62 62 NNW 5 7 30.08 1019 10 16.0934 0 0
4:53 am 04:53 Clear 37 2.8 26 -3.3 65 65 WNW 5 7 30.08 1019 10 16.0934 0 0
5:53 am 05:53 Clear 37 2.8 26 -3.3 65 65 NNW 3 6 30.11 1020 10 16.0934 0 0
6:53 am 06:53 Sunny 37 2.8 26 -3.3 65 65 WNW 5 7 30.13 1020 10 16.0934 0 0
7:53 am 07:53 Sunny 40 4.4 27 -2.8 60 60 Calm 30.14 1021 10 16.0934 0 0
8:53 am 08:53 Sunny 46 7.8 27 -2.8 47 47 Calm 30.16 1021 10 16.0934 0 0
9:53 am 09:53 Sunny 50 10 28 -2.2 43 43 Calm 30.17 1022 10 16.0934 0 0
10:53 am 10:53 Sunny 53 11.7 26 -3.3 35 35 ESE 3 6 30.16 1021 10 16.0934 0 0
11:53 am 11:53 Sunny 53 11.7 26 -3.3 35 35 SSE 3 6 30.12 1020 10 16.0934 0 0
12:53 pm 12:53 Sunny 56 13.3 27 -2.8 33 33 VRB 3 6 30.08 1019 10 16.0934 0 0
1:53 pm 13:53 Sunny 58 14.4 26 -3.3 29 29 ESE 5 7 30.07 1018 10 16.0934 0 0
2:53 pm 14:53 Sunny 57 13.9 26 -3.3 30 30 SE 6 9 30.06 1018 10 16.0934 0 0
3:53 pm 15:53 Sunny 57 13.9 27 -2.8 32 32 ESE 6 9 30.07 1018 10 16.0934 0 0
4:53 pm 16:53 Clear 55 12.8 27 -2.8 34 34 SSE 3 6 30.07 1018 10 16.0934 0 0
5:53 pm 17:53 Clear 53 11.7 27 -2.8 37 37 S 3 6 30.09 1019 10 16.0934 0 0
6:53 pm 18:53 Clear 52 11.1 27 -2.8 38 38 WSW 5 7 30.09 1019 10 16.0934 0 0
7:53 pm 19:53 Clear 50 10 27 -2.8 41 41 Calm 30.1 1019 10 16.0934 0 0
8:53 pm 20:53 Clear 46 7.8 27 -2.8 47 47 Calm 30.1 1019 10 16.0934 0 0
9:53 pm 21:53 Clear 44 6.7 27 -2.8 51 51 WNW 3 6 30.1 1019 10 16.0934 0 0
10:53 pm 22:53 Clear 43 6.1 27 -2.8 53 53 WNW 3 6 30.09 1019 10 16.0934 0 0
11:53 pm 23:53 Clear 42 5.6 27 -2.8 55 55 WNW 6 9 30.08 1019 10 16.0934 0 0

Powered by AerisWeather